UAE9658 LEZG-OMDW

Flight info

Callsign UAE9658
Flight time N/A
Altitude 32000
Route PONEN N870 BCN/N0479F330 DCT DIPES/N0477F340 N725 OSPOK/N0478F330 DCT NOLVI DCT ORKUM/N0477F340 DCT ELSAG DCT ALG/N0477F330 DCT VENIM DCT ARLOS/N0479F350 DCT DASUM Y234 FYM M872 BDB Y214 RAPMA DCT KUVSO DCT KATIT DCT PEKEM M628 RIGIL G783 ASPED Q308 PEDOG R401 GIDIS
Aircraft B77L/H-SDE1E2E3FGHIJ2J3J4J5M1RWXY/LB1D1

Departure

Time 2026-04-18 11:30
Airport Zaragoza Airport (LEZG)

Arrival

Time N/A
Airport Al Maktoum International Airport (OMDW)
Time Latitude Longitude Altitude Speed Heading
2026-04-18 11:13 41.66104 -1.00564 876 ft 0 kts 37°
2026-04-18 11:19 41.66104 -1.00565 876 ft 1 kts 37°
2026-04-18 11:19 41.66092 -1.00576 876 ft 3 kts 37°
2026-04-18 11:20 41.66076 -1.00592 876 ft 3 kts 35°
2026-04-18 11:20 41.66059 -1.00607 876 ft 3 kts 37°
2026-04-18 11:20 41.66046 -1.00624 876 ft 3 kts 71°
2026-04-18 11:20 41.66044 -1.00633 876 ft 1 kts 127°
2026-04-18 11:21 41.66053 -1.00649 876 ft 3 kts 127°
2026-04-18 11:21 41.66063 -1.00667 876 ft 1 kts 127°
2026-04-18 11:21 41.66064 -1.00669 876 ft 0 kts 127°
2026-04-18 11:23 41.66060 -1.00662 876 ft 3 kts 127°
2026-04-18 11:23 41.66034 -1.00616 876 ft 9 kts 129°
2026-04-18 11:24 41.65978 -1.00581 876 ft 8 kts 171°
2026-04-18 11:24 41.65928 -1.00578 876 ft 8 kts 185°
2026-04-18 11:24 41.65861 -1.00603 876 ft 12 kts 208°
2026-04-18 11:24 41.65806 -1.00645 876 ft 12 kts 210°
2026-04-18 11:25 41.65717 -1.00714 876 ft 17 kts 210°
2026-04-18 11:25 41.65669 -1.00751 876 ft 0 kts 210°
2026-04-18 11:29 41.65664 -1.00755 876 ft 3 kts 210°
2026-04-18 11:29 41.65626 -1.00785 876 ft 9 kts 210°
2026-04-18 11:29 41.65561 -1.00842 876 ft 9 kts 233°
2026-04-18 11:29 41.65579 -1.00923 876 ft 12 kts 300°
2026-04-18 11:30 41.65681 -1.01157 876 ft 60 kts 300°
2026-04-18 11:30 41.66043 -1.01993 876 ft 146 kts 300°
2026-04-18 11:30 41.66670 -1.03446 1014 ft 203 kts 300°
2026-04-18 11:30 41.67364 -1.05049 2005 ft 194 kts 300°
2026-04-18 11:31 41.68006 -1.06614 3051 ft 190 kts 297°
2026-04-18 11:31 41.68626 -1.08167 4093 ft 189 kts 297°
2026-04-18 11:31 41.69281 -1.09810 4431 ft 212 kts 296°
2026-04-18 11:31 41.70012 -1.11653 4636 ft 237 kts 297°
2026-04-18 11:32 41.70826 -1.13711 4854 ft 264 kts 297°
2026-04-18 11:32 41.71699 -1.15918 5489 ft 271 kts 296°
2026-04-18 11:32 41.72593 -1.18172 6284 ft 276 kts 296°
2026-04-18 11:32 41.73438 -1.20473 7010 ft 276 kts 285°
2026-04-18 11:33 41.73510 -1.23014 7602 ft 278 kts 250°
2026-04-18 11:33 41.72492 -1.25158 8315 ft 278 kts 217°
2026-04-18 11:33 41.70751 -1.26183 9031 ft 278 kts 185°
2026-04-18 11:33 41.68842 -1.25829 9709 ft 279 kts 160°
2026-04-18 11:34 41.66994 -1.25139 10189 ft 285 kts 179°
2026-04-18 11:34 41.65001 -1.25547 10594 ft 290 kts 191°
2026-04-18 11:34 41.62990 -1.25630 10952 ft 301 kts 168°
2026-04-18 11:34 41.60997 -1.24712 11576 ft 306 kts 155°
2026-04-18 11:35 41.59083 -1.23452 12322 ft 308 kts 155°
2026-04-18 11:35 41.57176 -1.22131 12998 ft 313 kts 150°
2026-04-18 11:35 41.55395 -1.20432 13600 ft 317 kts 132°
2026-04-18 11:35 41.54248 -1.17901 14122 ft 324 kts 112°
2026-04-18 11:36 41.53500 -1.15048 14737 ft 327 kts 109°
2026-04-18 11:36 41.52814 -1.12143 15465 ft 328 kts 109°
2026-04-18 11:36 41.52094 -1.09251 16123 ft 330 kts 110°
2026-04-18 11:36 41.51319 -1.06352 16712 ft 334 kts 111°
2026-04-18 11:37 41.50633 -1.03920 17241 ft 336 kts 112°
2026-04-18 11:37 41.49777 -1.00999 17841 ft 339 kts 113°
2026-04-18 11:37 41.48895 -0.98066 18475 ft 343 kts 113°
2026-04-18 11:37 41.47993 -0.95111 19012 ft 346 kts 114°
2026-04-18 11:38 41.47072 -0.92129 19526 ft 349 kts 114°
2026-04-18 11:38 41.46139 -0.89120 20037 ft 353 kts 114°
2026-04-18 11:38 41.45194 -0.86076 20549 ft 357 kts 114°
2026-04-18 11:38 41.44236 -0.83003 21078 ft 360 kts 114°
2026-04-18 11:39 41.43268 -0.79905 21586 ft 364 kts 114°
2026-04-18 11:39 41.42291 -0.76776 22091 ft 368 kts 114°
2026-04-18 11:39 41.41305 -0.73623 22612 ft 371 kts 114°
2026-04-18 11:39 41.40309 -0.70440 23114 ft 374 kts 114°
2026-04-18 11:40 41.39302 -0.67224 23643 ft 378 kts 114°
2026-04-18 11:40 41.38286 -0.63983 24057 ft 382 kts 114°
2026-04-18 11:40 41.37257 -0.60709 24482 ft 384 kts 114°
2026-04-18 11:40 41.36221 -0.57417 24920 ft 387 kts 114°
2026-04-18 11:41 41.35349 -0.54020 25286 ft 392 kts 100°
2026-04-18 11:41 41.35201 -0.50393 25587 ft 395 kts 90°
2026-04-18 11:41 41.35227 -0.46716 25947 ft 400 kts 90°
2026-04-18 11:41 41.35250 -0.43003 26391 ft 402 kts 90°
2026-04-18 11:42 41.35259 -0.39261 26830 ft 405 kts 91°
2026-04-18 11:42 41.35253 -0.35510 27251 ft 407 kts 91°
2026-04-18 11:42 41.35237 -0.31723 27668 ft 411 kts 91°
2026-04-18 11:42 41.35211 -0.27906 28084 ft 414 kts 91°
2026-04-18 11:43 41.35180 -0.24062 28487 ft 417 kts 91°
2026-04-18 11:43 41.35147 -0.20189 28896 ft 420 kts 91°
2026-04-18 11:43 41.35111 -0.16291 29296 ft 423 kts 91°
2026-04-18 11:43 41.35074 -0.12362 29695 ft 426 kts 91°
2026-04-18 11:44 41.35035 -0.08401 30085 ft 429 kts 91°
2026-04-18 11:44 41.34995 -0.04417 30433 ft 432 kts 91°
2026-04-18 11:44 41.34954 -0.00409 30752 ft 434 kts 91°
2026-04-18 11:44 41.34911 0.03614 31111 ft 436 kts 91°
2026-04-18 11:45 41.34867 0.07661 31426 ft 438 kts 91°
2026-04-18 11:45 41.34821 0.11727 31729 ft 441 kts 91°
2026-04-18 11:45 41.34774 0.15818 32028 ft 443 kts 91°
2026-04-18 11:45 41.34726 0.19949 32102 ft 449 kts 91°
2026-04-18 11:46 41.34617 0.28232 32155 ft 445 kts 91°
2026-04-18 11:46 41.34502 0.36412 32159 ft 441 kts 91°
2026-04-18 11:47 41.34384 0.44567 32155 ft 441 kts 91°
2026-04-18 11:47 41.34262 0.52721 32158 ft 441 kts 91°
2026-04-18 11:48 41.34130 0.60896 32166 ft 442 kts 91°
2026-04-18 11:48 41.33989 0.69085 32161 ft 443 kts 91°
2026-04-18 11:49 41.33844 0.77295 32164 ft 444 kts 91°
2026-04-18 11:49 41.33693 0.85514 32163 ft 445 kts 91°
2026-04-18 11:50 41.33536 0.93744 32173 ft 445 kts 91°
2026-04-18 11:50 41.33374 1.01964 32170 ft 445 kts 91°
2026-04-18 11:51 41.33206 1.10177 32176 ft 443 kts 91°
2026-04-18 11:51 41.33035 1.18317 32174 ft 442 kts 91°
2026-04-18 11:52 41.32865 1.26532 32181 ft 441 kts 91°
2026-04-18 11:52 41.32693 1.34629 32185 ft 440 kts 91°
2026-04-18 11:53 41.32514 1.42768 32179 ft 440 kts 91°
2026-04-18 11:53 41.32329 1.50914 32173 ft 441 kts 91°
2026-04-18 11:54 41.32137 1.59114 32183 ft 440 kts 91°
2026-04-18 11:54 41.31942 1.67210 32175 ft 441 kts 91°
2026-04-18 11:55 41.31728 1.75363 32182 ft 441 kts 92°
2026-04-18 11:55 41.31499 1.83513 32173 ft 441 kts 92°
2026-04-18 11:56 41.31266 1.91666 32182 ft 441 kts 92°
2026-04-18 11:56 41.31029 1.99819 32182 ft 441 kts 92°
2026-04-18 11:57 41.30786 2.07962 32184 ft 440 kts 92°
2026-04-18 11:57 41.29932 2.16006 32183 ft 439 kts 103°
2026-04-18 11:58 41.28584 2.23926 32185 ft 439 kts 103°
2026-04-18 11:58 41.27239 2.31853 32179 ft 439 kts 103°
2026-04-18 11:59 41.25913 2.39782 32179 ft 439 kts 103°
2026-04-18 11:59 41.24590 2.47711 32176 ft 440 kts 103°
2026-04-18 12:00 41.23262 2.55651 32179 ft 440 kts 103°
2026-04-18 12:00 41.21927 2.63594 32178 ft 441 kts 103°
2026-04-18 12:01 41.19911 2.75510 32173 ft 441 kts 103°
2026-04-18 12:02 41.18559 2.83462 32174 ft 441 kts 103°
2026-04-18 12:02 41.17210 2.91355 32182 ft 441 kts 103°
2026-04-18 12:03 41.16069 2.98008 32175 ft 441 kts 103°
2026-04-18 12:03 41.14702 3.05944 32184 ft 441 kts 103°
2026-04-18 12:04 41.13330 3.13879 32175 ft 441 kts 103°
2026-04-18 12:04 41.11952 3.21808 32177 ft 441 kts 103°
2026-04-18 12:05 41.10570 3.29731 32179 ft 441 kts 103°
2026-04-18 12:05 41.09183 3.37645 32172 ft 441 kts 103°
2026-04-18 12:06 41.07792 3.45556 32171 ft 441 kts 103°
2026-04-18 12:06 41.06395 3.53460 32175 ft 441 kts 103°
2026-04-18 12:07 41.04984 3.61361 32173 ft 441 kts 104°
2026-04-18 12:07 41.03563 3.69259 32178 ft 441 kts 104°
2026-04-18 12:08 41.02150 3.77105 32182 ft 441 kts 104°
2026-04-18 12:08 41.00720 3.85004 32167 ft 441 kts 103°
2026-04-18 12:09 40.99287 3.92909 32174 ft 441 kts 103°
2026-04-18 12:09 40.97850 4.00810 32174 ft 442 kts 103°
2026-04-18 12:10 40.96408 4.08710 32169 ft 442 kts 104°
2026-04-18 12:10 40.94958 4.16616 32163 ft 442 kts 104°
2026-04-18 12:11 40.93503 4.24515 32165 ft 442 kts 103°
2026-04-18 12:11 40.92041 4.32423 32167 ft 442 kts 103°
2026-04-18 12:12 40.90576 4.40321 32163 ft 443 kts 103°
2026-04-18 12:12 40.89106 4.48219 32169 ft 443 kts 103°
2026-04-18 12:13 40.87652 4.56127 32168 ft 443 kts 103°
2026-04-18 12:13 40.86195 4.64030 32165 ft 443 kts 103°
2026-04-18 12:14 40.85139 4.72024 32160 ft 441 kts 96°
2026-04-18 12:14 40.84434 4.80072 32158 ft 442 kts 95°
2026-04-18 12:15 40.83714 4.88131 32160 ft 442 kts 96°
2026-04-18 12:15 40.82969 4.96188 32167 ft 442 kts 95°
2026-04-18 12:16 40.82210 5.04245 32171 ft 443 kts 96°
2026-04-18 12:16 40.81449 5.12252 32166 ft 443 kts 96°
2026-04-18 12:17 40.80677 5.20314 32153 ft 443 kts 96°
2026-04-18 12:17 40.79900 5.28378 32152 ft 443 kts 96°
2026-04-18 12:18 40.79119 5.36431 32165 ft 442 kts 95°
2026-04-18 12:18 40.78331 5.44484 32155 ft 442 kts 95°
2026-04-18 12:19 40.77539 5.52531 32151 ft 442 kts 95°
2026-04-18 12:19 40.76742 5.60559 32155 ft 441 kts 95°
2026-04-18 12:20 40.75941 5.68579 32157 ft 441 kts 95°
2026-04-18 12:20 40.75134 5.76598 32155 ft 441 kts 95°
2026-04-18 12:21 40.74322 5.84608 32156 ft 441 kts 95°
2026-04-18 12:21 40.73506 5.92620 32157 ft 441 kts 95°
2026-04-18 12:22 40.72681 6.00627 32151 ft 441 kts 95°
2026-04-18 12:22 40.71846 6.08633 32162 ft 441 kts 95°
2026-04-18 12:23 40.71006 6.16642 32164 ft 441 kts 95°
2026-04-18 12:23 40.70162 6.24647 32146 ft 441 kts 95°
2026-04-18 12:24 40.69312 6.32657 32153 ft 441 kts 95°
2026-04-18 12:24 40.68457 6.40657 32159 ft 441 kts 95°
2026-04-18 12:25 40.67597 6.48651 32179 ft 441 kts 95°
2026-04-18 12:25 40.66733 6.56638 32152 ft 440 kts 95°
2026-04-18 12:26 40.65863 6.64617 32154 ft 440 kts 96°
2026-04-18 12:26 40.64989 6.72580 32156 ft 439 kts 96°
2026-04-18 12:27 40.64118 6.80474 32156 ft 439 kts 96°
2026-04-18 12:27 40.63235 6.88418 32164 ft 439 kts 96°
2026-04-18 12:28 40.62347 6.96362 32155 ft 438 kts 96°
2026-04-18 12:28 40.61454 7.04296 32154 ft 438 kts 96°
2026-04-18 12:29 40.60556 7.12222 32157 ft 438 kts 96°
2026-04-18 12:29 40.59652 7.20152 32152 ft 438 kts 96°
2026-04-18 12:30 40.58744 7.28072 32154 ft 438 kts 96°
2026-04-18 12:30 40.57830 7.36003 32154 ft 438 kts 96°
2026-04-18 12:31 40.56912 7.43928 32152 ft 438 kts 95°
2026-04-18 12:31 40.56657 7.51889 32151 ft 434 kts 82°
2026-04-18 12:32 40.57341 7.59737 32163 ft 432 kts 80°
2026-04-18 12:32 40.58056 7.67591 32149 ft 433 kts 80°
2026-04-18 12:33 40.58739 7.75455 32143 ft 433 kts 80°
2026-04-18 12:33 40.59405 7.83313 32142 ft 432 kts 80°
2026-04-18 12:34 40.60065 7.91172 32128 ft 432 kts 80°
2026-04-18 12:34 40.60720 7.99022 32134 ft 431 kts 81°
2026-04-18 12:35 40.61368 8.06861 32111 ft 431 kts 81°
2026-04-18 12:35 40.62011 8.14686 32110 ft 430 kts 81°
2026-04-18 12:36 40.62373 8.22476 32096 ft 432 kts 94°
2026-04-18 12:36 40.60748 8.30084 32091 ft 436 kts 114°
2026-04-18 12:37 40.57956 8.37185 32114 ft 438 kts 115°
2026-04-18 12:37 40.55117 8.44303 32138 ft 441 kts 115°
2026-04-18 12:38 40.52283 8.51489 32122 ft 444 kts 115°
2026-04-18 12:38 40.49454 8.58713 32122 ft 445 kts 115°
2026-04-18 12:39 40.46625 8.65945 32121 ft 445 kts 115°
2026-04-18 12:39 40.43792 8.73173 32134 ft 444 kts 115°
2026-04-18 12:40 40.40964 8.80366 32116 ft 443 kts 115°
2026-04-18 12:40 40.38139 8.87534 32110 ft 442 kts 115°
2026-04-18 12:41 40.35320 8.94671 32107 ft 440 kts 115°
2026-04-18 12:41 40.32500 9.01795 32102 ft 439 kts 115°
2026-04-18 12:42 40.29685 9.08887 32120 ft 439 kts 115°
2026-04-18 12:42 40.26861 9.15987 32120 ft 439 kts 115°
2026-04-18 12:43 40.24028 9.23090 32121 ft 441 kts 115°
2026-04-18 12:43 40.21182 9.30212 32114 ft 443 kts 115°
2026-04-18 12:44 40.18321 9.37354 32116 ft 444 kts 115°
2026-04-18 12:44 40.15446 9.44511 32112 ft 445 kts 115°
2026-04-18 12:45 40.12584 9.51618 32113 ft 445 kts 115°
2026-04-18 12:45 40.09701 9.58763 32100 ft 444 kts 115°
2026-04-18 12:46 40.06811 9.65910 32108 ft 441 kts 115°
2026-04-18 12:46 40.03960 9.72936 32098 ft 441 kts 115°
2026-04-18 12:47 40.01090 9.79998 32112 ft 440 kts 115°
2026-04-18 12:47 39.98214 9.87061 32116 ft 442 kts 115°
2026-04-18 12:48 39.95326 9.94136 32110 ft 442 kts 115°
2026-04-18 12:48 39.92429 10.01214 32103 ft 443 kts 115°
2026-04-18 12:49 39.89525 10.08292 32102 ft 443 kts 115°
2026-04-18 12:49 39.87108 10.14174 32099 ft 443 kts 115°
2026-04-18 12:50 39.84197 10.21239 32122 ft 443 kts 115°
2026-04-18 12:50 39.81285 10.28292 32093 ft 442 kts 115°
2026-04-18 12:51 39.78377 10.35316 32080 ft 440 kts 115°
2026-04-18 12:51 39.75477 10.42307 32088 ft 439 kts 115°
2026-04-18 12:52 39.72578 10.49280 32093 ft 439 kts 115°
2026-04-18 12:52 39.69672 10.56256 32094 ft 439 kts 115°
2026-04-18 12:53 39.66756 10.63237 32091 ft 440 kts 116°
2026-04-18 12:53 39.63835 10.70215 32090 ft 440 kts 116°
2026-04-18 12:54 39.60910 10.77186 32087 ft 439 kts 116°
2026-04-18 12:54 39.57987 10.84135 32086 ft 438 kts 116°
2026-04-18 12:55 39.55072 10.91050 32086 ft 437 kts 116°
2026-04-18 12:55 39.52158 10.97949 32085 ft 436 kts 116°
2026-04-18 12:56 39.49243 11.04835 32073 ft 436 kts 116°
2026-04-18 12:56 39.46319 11.11728 32083 ft 437 kts 116°
2026-04-18 12:57 39.43386 11.18626 32088 ft 439 kts 116°
2026-04-18 12:57 39.40436 11.25549 32088 ft 440 kts 116°
2026-04-18 12:58 39.37467 11.32498 32098 ft 442 kts 116°
2026-04-18 12:58 39.34492 11.39447 32083 ft 441 kts 116°
2026-04-18 12:59 39.31522 11.46365 32069 ft 439 kts 116°
2026-04-18 12:59 39.28567 11.53237 32066 ft 436 kts 116°
2026-04-18 13:00 39.25643 11.60019 32069 ft 434 kts 116°
2026-04-18 13:00 39.22691 11.66854 32074 ft 433 kts 116°
2026-04-18 13:01 39.19759 11.73630 32075 ft 433 kts 117°
2026-04-18 13:01 39.16818 11.80410 32074 ft 434 kts 117°
2026-04-18 13:02 39.13885 11.87157 32073 ft 435 kts 117°
2026-04-18 13:02 39.10921 11.93961 32072 ft 436 kts 117°
2026-04-18 13:03 39.07941 12.00785 32073 ft 437 kts 117°
2026-04-18 13:03 39.03457 12.11027 32060 ft 438 kts 117°
2026-04-18 13:04 39.00465 12.17841 32075 ft 437 kts 117°
2026-04-18 13:04 38.97476 12.24633 32055 ft 436 kts 117°
2026-04-18 13:05 38.94495 12.31393 32060 ft 434 kts 117°
2026-04-18 13:05 38.91517 12.38133 32057 ft 433 kts 117°
2026-04-18 13:06 38.88540 12.44856 32066 ft 433 kts 117°
2026-04-18 13:06 38.85557 12.51579 32068 ft 434 kts 117°
2026-04-18 13:07 38.82565 12.58307 32076 ft 434 kts 117°
2026-04-18 13:07 38.79566 12.65038 32066 ft 435 kts 117°
2026-04-18 13:08 38.76555 12.71780 32068 ft 436 kts 117°
2026-04-18 13:08 38.73533 12.78532 32080 ft 437 kts 117°
2026-04-18 13:09 38.70502 12.85287 32068 ft 438 kts 117°
2026-04-18 13:09 38.67464 12.92048 32063 ft 438 kts 117°
2026-04-18 13:10 38.64422 12.98800 32065 ft 438 kts 117°
2026-04-18 13:10 38.61378 13.05543 32060 ft 437 kts 117°
2026-04-18 13:11 38.58334 13.12272 32061 ft 437 kts 117°
2026-04-18 13:11 38.55288 13.18992 32070 ft 437 kts 117°
2026-04-18 13:12 38.52259 13.25660 32060 ft 437 kts 117°
2026-04-18 13:12 38.49204 13.32372 32061 ft 437 kts 117°
2026-04-18 13:13 38.46144 13.39080 32063 ft 437 kts 117°
2026-04-18 13:13 38.43082 13.45780 32063 ft 437 kts 117°
2026-04-18 13:14 38.40014 13.52477 32070 ft 437 kts 117°
2026-04-18 13:14 38.36940 13.59172 32060 ft 438 kts 117°
2026-04-18 13:15 38.33861 13.65866 32059 ft 437 kts 117°
2026-04-18 13:15 38.30782 13.72545 32057 ft 437 kts 117°
2026-04-18 13:16 38.27700 13.79218 32057 ft 437 kts 117°
2026-04-18 13:16 38.24612 13.85889 32063 ft 437 kts 118°
2026-04-18 13:17 38.21524 13.92547 32065 ft 437 kts 118°
2026-04-18 13:17 38.18434 13.99194 32053 ft 437 kts 118°
2026-04-18 13:18 38.15344 14.05828 32058 ft 436 kts 118°
2026-04-18 13:18 38.12269 14.12416 32056 ft 436 kts 118°
2026-04-18 13:19 38.09156 14.19074 32057 ft 435 kts 118°
2026-04-18 13:19 38.06085 14.25628 32057 ft 435 kts 118°
2026-04-18 13:20 38.02988 14.32222 32047 ft 435 kts 118°
2026-04-18 13:20 37.99890 14.38808 32063 ft 435 kts 118°
2026-04-18 13:21 37.96783 14.45398 32053 ft 436 kts 118°
2026-04-18 13:21 37.93665 14.51997 32030 ft 436 kts 118°
2026-04-18 13:22 37.90543 14.58591 32032 ft 437 kts 118°
2026-04-18 13:22 37.87412 14.65192 32019 ft 437 kts 118°
2026-04-18 13:23 37.84279 14.71781 32022 ft 437 kts 118°
2026-04-18 13:23 37.81146 14.78362 32016 ft 436 kts 118°
2026-04-18 13:24 37.78010 14.84934 32017 ft 436 kts 118°
2026-04-18 13:24 37.74869 14.91499 32011 ft 437 kts 118°
2026-04-18 13:25 37.71718 14.98074 32014 ft 438 kts 118°
2026-04-18 13:25 37.68560 15.04654 32000 ft 438 kts 118°
2026-04-18 13:26 37.65420 15.11181 32000 ft 438 kts 118°
2026-04-18 13:26 37.62251 15.17753 32001 ft 439 kts 118°
2026-04-18 13:27 37.59072 15.24335 31995 ft 439 kts 118°
2026-04-18 13:27 37.55889 15.30911 32010 ft 439 kts 119°
2026-04-18 13:28 37.52704 15.37479 31991 ft 439 kts 119°
2026-04-18 13:28 37.49517 15.44037 31980 ft 439 kts 119°
2026-04-18 13:29 37.46330 15.50582 31984 ft 438 kts 119°
2026-04-18 13:29 37.43145 15.57111 31998 ft 437 kts 119°
2026-04-18 13:30 37.39961 15.63625 32002 ft 437 kts 119°
2026-04-18 13:30 37.36775 15.70131 31990 ft 437 kts 119°
2026-04-18 13:31 37.33585 15.76630 31992 ft 437 kts 119°
2026-04-18 13:31 37.30394 15.83121 31995 ft 437 kts 119°
2026-04-18 13:32 37.27200 15.89603 31994 ft 436 kts 119°
2026-04-18 13:32 37.24003 15.96080 31997 ft 437 kts 119°
2026-04-18 13:33 37.21340 16.01464 32008 ft 437 kts 120°
2026-04-18 13:33 37.18136 16.07931 32000 ft 437 kts 120°
2026-04-18 13:34 37.14924 16.14403 31998 ft 437 kts 120°
2026-04-18 13:34 37.11709 16.20866 31997 ft 437 kts 120°
2026-04-18 13:35 37.08492 16.27323 31996 ft 437 kts 120°
2026-04-18 13:35 37.05274 16.33769 31997 ft 436 kts 120°
2026-04-18 13:36 37.02050 16.40214 31997 ft 437 kts 120°
2026-04-18 13:36 36.98826 16.46647 31998 ft 436 kts 120°
2026-04-18 13:37 36.95596 16.53077 32001 ft 437 kts 120°
2026-04-18 13:37 36.92363 16.59503 32000 ft 437 kts 120°
2026-04-18 13:38 36.89127 16.65923 31998 ft 437 kts 120°
2026-04-18 13:38 36.85884 16.72345 32010 ft 437 kts 120°
2026-04-18 13:39 36.82635 16.78766 32000 ft 437 kts 121°
2026-04-18 13:39 36.79382 16.85182 31999 ft 438 kts 121°
2026-04-18 13:40 36.76144 16.91556 31998 ft 438 kts 121°
2026-04-18 13:40 36.72883 16.97964 31996 ft 437 kts 121°
2026-04-18 13:41 36.69620 17.04364 31997 ft 437 kts 121°
2026-04-18 13:41 36.66354 17.10758 31998 ft 438 kts 121°
2026-04-18 13:42 36.63083 17.17150 31995 ft 438 kts 121°
2026-04-18 13:42 36.59809 17.23536 31998 ft 438 kts 121°
2026-04-18 13:43 36.56530 17.29918 31999 ft 438 kts 121°
2026-04-18 13:43 36.53249 17.36298 31993 ft 438 kts 121°
2026-04-18 13:44 36.50064 17.42736 31990 ft 437 kts 115°
2026-04-18 13:44 36.47751 17.49679 32000 ft 435 kts 109°
2026-04-18 13:45 36.45632 17.56719 31990 ft 435 kts 109°
2026-04-18 13:45 36.43493 17.63753 31986 ft 436 kts 109°
2026-04-18 13:46 36.41331 17.70786 31984 ft 436 kts 109°
2026-04-18 13:46 36.39158 17.77818 31985 ft 437 kts 109°
2026-04-18 13:47 36.36977 17.84850 31984 ft 437 kts 109°
2026-04-18 13:47 36.34790 17.91888 31980 ft 437 kts 109°
2026-04-18 13:48 36.32600 17.98919 31979 ft 437 kts 110°